Flag for United Kingdom Weather past 2 weeks in Saint Helier, Jersey, United Kingdom

Now
50 °F

Passing clouds.


Feels Like: 44 °F
Forecast: 45 / 53 °F
Wind: 17 mph from Northeast

Location: Jersey Airport


UV Index: 3 (Moderate)

Visibility: N/A


Pressure: 30.12 "Hg

Humidity: 71%

Dew point: 41 °F

Location of Saint HelierLocation

Historic Weather in Saint Helier

°F

Saint Helier temperature yesterday

Maximum temperature yesterday: 61 °F (at 1:20 PM)
Minimum temperature yesterday: 46 °F (at 4:20 AM)
Average temperature yesterday: 54 °F

Past Weeks' High & Low Weather Summary

 TemperatureHumidityPressure
High63 °F (Apr 16, 4:20 PM)100% (Apr 3, 12:50 PM)30.36 "Hg (Apr 3, 12:50 PM)
Low43 °F (Apr 9, 6:50 AM)45% (Apr 16, 2:20 PM)29.50 "Hg (Apr 3, 9:20 AM)
Average52 °F81%30.10 "Hg
* Reported Apr 3 9:20 AM — Apr 18 9:20 AM, Saint Helier, Weather by CustomWeather, © 2014

Note: Actual official high and low records may vary slightly from our data, if they occured in-between our weather recording intervals... More about our weather records

Advertising

Historic Weather Conditions — Data for Previous 24 hours

 ConditionsComfort  
Time TempWeatherWind HumidityBarometerVisibility
9:20 AM
Apr 18
52 °FPassing clouds.15 mph72%30.12 "HgN/A
8:50 AM52 °FPassing clouds.14 mph72%30.09 "HgN/A
8:20 AM50 °FPassing clouds.16 mph82%30.09 "HgN/A
7:50 AM50 °FPassing clouds.14 mph82%30.09 "HgN/A
7:20 AM50 °FPassing clouds.10 mph82%30.09 "HgN/A
6:50 AM50 °FPassing clouds.9 mph82%30.09 "HgN/A
6:20 AM48 °FPassing clouds.10 mph87%30.09 "HgN/A
5:50 AM48 °FPassing clouds.10 mph87%30.09 "HgN/A
5:20 AM48 °FPassing clouds.9 mph87%30.09 "HgN/A
4:50 AM48 °FClear.9 mph87%30.07 "Hg10 mi
4:20 AM48 °FClear.10 mph87%30.09 "Hg10 mi
3:50 AM50 °FClear.6 mph82%30.09 "Hg10 mi
8:50 PM
Apr 17
50 °FScattered clouds.8 mph94%30.12 "Hg5 mi
8:20 PM50 °FPassing clouds.10 mph94%30.12 "Hg5 mi
7:50 PM50 °FPassing clouds.12 mph94%30.12 "Hg5 mi
7:20 PM50 °FSunny.8 mph88%30.12 "Hg10 mi
6:50 PM52 °FSunny.10 mph82%30.12 "Hg10 mi
5:50 PM54 °FSunny.14 mph82%30.12 "Hg10 mi
5:20 PM54 °FSunny.13 mph77%30.15 "Hg10 mi
4:50 PM55 °FSunny.10 mph67%30.15 "Hg10 mi
4:20 PM57 °FSunny.9 mph72%30.15 "Hg10 mi
3:50 PM59 °FSunny.10 mph68%30.12 "Hg10 mi
3:20 PM61 °FSunny.9 mph52%30.12 "Hg10 mi
2:50 PM61 °FSunny.9 mph48%30.15 "Hg10 mi
2:20 PM59 °FSunny.7 mph68%30.15 "Hg10 mi
1:50 PM59 °FSunny.7 mph68%30.15 "Hg10 mi
1:20 PM61 °FSunny.9 mph68%30.18 "Hg10 mi
12:50 PM57 °FPassing clouds.7 mph82%30.18 "HgN/A
12:20 PM57 °FPassing clouds.5 mph77%30.18 "HgN/A
11:50 AM55 °FPassing clouds.7 mph72%30.18 "HgN/A
11:20 AM55 °FPassing clouds.7 mph72%30.18 "HgN/A
10:50 AM57 °FSunny.9 mph63%30.18 "Hg10 mi
10:20 AM55 °FPassing clouds.7 mph63%30.18 "HgN/A
Weather by CustomWeather, © 2014

See weather overview